EW7651 Weather Reports


time (UTC)temp
C
wind
direction
speed
KPH
gust
KPH
rain 1hr
cm
rain 24hr
cm
rain mn
cm
humidity
%
barometer
mb
20260506203039 12 256 0.0 0.0 0.00 0.00 0.00 41 1010.3
20260506201538 12 250 0.0 0.0 0.00 0.00 0.00 40 1010.1
20260506200032 12 250 0.0 0.0 0.00 0.00 0.00 42 1010.0
20260506194526 12 250 0.0 0.0 0.00 0.00 0.00 45 1009.8
20260506193033 12 250 0.0 0.0 0.00 0.00 0.00 48 1009.7
20260506191518 12 250 0.0 0.0 0.00 0.00 0.00 52 1009.6
20260506190014 13 250 0.0 0.0 0.00 0.00 0.00 52 1009.4
20260506184511 13 250 0.0 0.0 0.00 0.00 0.00 52 1009.3
20260506183006 13 250 0.0 0.0 0.00 0.00 0.00 53 1009.1
20260506181504 13 250 0.0 0.0 0.00 0.00 0.00 53 1008.9
20260506180059 13 250 0.0 0.0 0.00 0.00 0.00 53 1008.7
20260506174556 13 250 0.0 0.0 0.00 0.00 0.00 54 1008.6
20260506173119 13 250 0.0 0.0 0.00 0.00 0.00 54 1008.4
20260506171548 13 252 0.0 0.0 0.00 0.00 0.00 54 1008.3
20260506164540 14 165 0.0 0.0 0.00 0.00 0.00 53 1008.1
20260506163045 15 157 0.0 0.0 0.00 0.00 0.00 53 1008.0
20260506161531 16 194 0.0 0.0 0.00 0.00 0.00 46 1007.9
20260506160028 16 153 0.0 0.0 0.00 0.00 0.00 46 1007.9
20260506154526 16 5 0.0 0.0 0.00 0.00 0.00 47 1007.8
20260506153024 16 281 0.0 0.0 0.00 0.00 0.00 47 1007.8
20260506151516 15 163 0.0 1.6 0.00 0.00 0.00 35 1007.8
20260506150016 15 112 0.0 0.0 0.00 0.00 0.00 38 1007.8
20260506144510 16 215 0.0 0.0 0.00 0.00 0.00 52 1007.7
20260506143011 16 147 0.0 0.0 0.00 0.00 0.00 52 1007.6
20260506141503 16 211 0.0 0.0 0.00 0.00 0.00 47 1007.7
20260506140059 16 331 0.0 0.0 0.00 0.00 0.00 43 1007.8
20260506134559 16 216 0.0 1.6 0.00 0.00 0.00 38 1007.7
20260506133114 16 218 0.0 0.0 0.00 0.00 0.00 31 1007.7
20260506131551 15 263 0.0 0.0 0.00 0.00 0.00 22 1007.7
20260506130045 15 179 0.0 0.0 0.00 0.00 0.00 19 1007.6
20260506124538 14 296 0.0 0.0 0.00 0.00 0.00 31 1007.6
20260506123034 15 227 0.0 0.0 0.00 0.00 0.00 38 1007.5
20260506121530 16 209 0.0 0.0 0.00 0.00 0.00 36 1007.5
20260506120026 15 162 0.0 0.0 0.00 0.00 0.00 20 1007.3
20260506114527 15 322 0.0 0.0 0.00 0.00 0.00 15 1007.3
20260506113019 15 108 0.0 0.0 0.00 0.00 0.00 22 1007.4
20260506111514 15 199 0.0 0.0 0.00 0.00 0.00 27 1007.3
20260506110010 15 250 0.0 0.0 0.00 0.00 0.00 25 1007.3
20260506104520 15 289 0.0 0.0 0.00 0.00 0.00 30 1007.3
20260506103006 15 282 0.0 0.0 0.00 0.00 0.00 22 1007.2
20260506101559 14 306 0.0 0.0 0.00 0.00 0.00 37 1007.3
20260506100055 15 245 0.0 0.0 0.00 0.00 0.00 43 1007.1
20260506094552 15 217 0.0 1.6 0.00 0.00 0.00 38 1007.1
20260506093047 15 243 0.0 0.0 0.00 0.00 0.00 22 1007.1
20260506091543 15 201 0.0 0.0 0.00 0.00 0.00 6 1007.2
20260506090045 14 85 0.0 0.0 0.00 0.00 0.00 1 1007.1
20260506084537 13 218 0.0 0.0 0.00 0.00 0.00 1 1007.0
20260506083039 12 196 0.0 0.0 0.00 0.00 0.00 1 1006.9
20260506081528 12 205 0.0 0.0 0.00 0.00 0.00 1 1006.9
20260506073017 11 145 0.0 0.0 0.00 0.00 0.00 1 1006.9
20260506071513 11 139 0.0 0.0 0.00 0.00 0.00 1 1006.9
20260506061600 10 92 0.0 1.6 0.00 0.00 0.00 1 1006.7
20260506043034 10 153 0.0 0.0 0.00 0.00 0.00 1 1006.7
20260506041528 10 196 0.0 1.6 0.00 0.00 0.00 1 1006.6
20260506040039 10 255 0.0 0.0 0.00 0.00 0.00 1 1006.6
20260506033016 10 196 0.0 0.0 0.00 0.00 0.00 1 1006.8
20260506031512 10 142 0.0 0.0 0.00 0.00 0.00 1 1006.8
20260506030008 10 224 0.0 0.0 0.00 0.00 0.00 1 1006.9
20260506023003 10 240 0.0 0.0 0.00 0.00 0.00 1 1007.1
20260506021605 10 231 0.0 0.0 0.00 0.00 0.00 1 1007.2
20260506020054 10 267 0.0 0.0 0.00 0.00 0.00 1 1007.2
20260506013046 10 216 0.0 0.0 0.00 0.00 0.00 1 1007.2
20260506011546 9 202 0.0 0.0 0.00 0.00 0.00 1 1007.3
20260506010046 9 196 0.0 0.0 0.00 0.00 0.00 1 1007.3
20260506003030 9 32 0.0 0.0 0.00 0.00 0.00 1 1007.7
20260506001526 9 196 0.0 0.0 0.00 0.00 0.00 1 1007.8
20260506000022 9 277 0.0 1.6 0.00 0.00 0.00 1 1007.8
20260505233015 9 281 0.0 0.0 0.00 0.00 0.00 1 1008.0
20260505231518 10 196 0.0 0.0 0.00 0.00 0.00 1 1008.0
20260505230007 10 197 0.0 0.0 0.00 0.00 0.00 1 1008.1
20260505223113 10 217 0.0 1.6 0.00 0.00 0.00 1 1008.2
20260505221600 10 328 0.0 0.0 0.00 0.00 0.00 1 1008.2
20260505220051 10 99 0.0 0.0 0.00 0.00 0.00 1 1008.2
20260505213044 10 214 0.0 0.0 0.00 0.00 0.00 1 1008.4
20260505211548 10 175 0.0 0.0 0.00 0.00 0.00 1 1008.4
20260505210038 11 207 0.0 0.0 0.00 0.00 0.00 1 1008.5